Flag for Poland Weather past 2 weeks in Białystok, Poland

Now
53 °F

Clear.


Feels Like: 53 °F
Forecast: 58 / 92 °F
Wind: No wind

Location: Bialystok

Current Time: Jul 4, 2015 at 2:50:03 AM

Latest Report: Jul 4, 2015 at 2:00 AM


Visibility: 13 mi

Pressure: 30.37 "Hg

Humidity: 96%

Dew point: 52 °F

Location of BiałystokLocation

Historic Weather in Białystok — Graph

°F

Białystok temperature yesterday

Maximum temperature yesterday: 83 °F (at 5:00 PM)
Minimum temperature yesterday: 49 °F (at 4:00 AM)
Average temperature yesterday: 68 °F

Past Weeks' High & Low Weather Summary

 TemperatureHumidityPressure
High83 °F (Jul 3, 5:00 PM)100% (Jun 22, 5:00 AM)30.44 "Hg (Jun 22, 5:00 AM)
Low41 °F (Jun 22, 4:00 AM)27% (Jul 3, 3:00 PM)29.75 "Hg (Jun 23, 6:00 AM)
Average60 °F72%30.05 "Hg
* Reported Jun 19 1:00 AM — Jul 4 1:00 AM, Białystok, Weather by CustomWeather, © 2015

Note: Actual official high and low records may vary slightly from our data, if they occured in-between our weather recording intervals... More about our weather records

Advertising

Białystok weather history for previous 24 hours

 ConditionsComfort  
Time TempWeatherWind HumidityBarometerVisibility
1:00 AM
Sat, Jul 4
54 °FClear.No wind94%30.37 "Hg12 mi
12:00 AM56 °FClear.No wind91%30.37 "Hg19 mi
11:00 PM
Fri, Jul 3
58 °FClear.No wind85%30.37 "Hg31 mi
10:00 PM60 °FClear.1 mph82%30.37 "Hg31 mi
9:00 PM65 °FClear.No wind75%30.36 "Hg28 mi
8:00 PM72 °FSunny.No wind63%30.35 "Hg28 mi
7:00 PM80 °FSunny.1 mph36%30.34 "Hg25 mi
6:00 PM82 °FSunny.1 mph29%30.35 "Hg22 mi
5:00 PM83 °FSunny.2 mph30%30.36 "Hg25 mi
4:00 PM82 °FSunny.2 mph28%30.37 "Hg19 mi
3:00 PM81 °FSunny.2 mph27%30.39 "Hg25 mi
2:00 PM81 °FSunny.2 mph29%30.40 "Hg19 mi
1:00 PM80 °FSunny.2 mph28%30.41 "Hg19 mi
12:00 PM79 °FSunny.1 mph31%30.42 "Hg19 mi
11:00 AM76 °FSunny.2 mph35%30.43 "Hg19 mi
10:00 AM76 °FSunny.3 mph38%30.43 "Hg22 mi
9:00 AM74 °FSunny.2 mph43%30.44 "Hg17 mi
8:00 AM70 °FSunny.1 mph55%30.44 "Hg19 mi
7:00 AM65 °FSunny.1 mph62%30.44 "Hg22 mi
6:00 AM56 °FSunny.No wind98%30.43 "Hg22 mi
4:00 AM49 °FFog.No wind97%30.43 "Hg7 mi
3:00 AM49 °FClear.No wind95%30.43 "Hg25 mi
2:00 AM51 °FClear.No wind94%30.42 "Hg28 mi
Weather by CustomWeather, © 2015

See weather overviewHow to use our weather pages